Wind_Speed
37 36 36 36 36 36 35 34 33 33 33 33 32 32 32 32 32 32 32 31 31 30 30 29 28 27 26 26 26 26 27 28 28 28 28 28 28 27 28 27 23 26
35 35 35 36 35 35 34 33 33 33 33 33 32 32 32 32 32 31 31 31 30 30 29 28 27 26 26 26 27 27 28 29 29 29 29 29 29 28 29 29 27 29
34 34 34 34 34 33 32 32 33 33 33 33 33 33 33 32 32 31 31 30 30 30 29 28 27 27 27 27 28 28 29 29 29 30 31 31 31 31 31 32 32 32
32 32 32 32 32 31 31 32 32 32 32 32 33 33 33 32 32 31 31 30 29 30 29 29 28 28 28 28 29 30 30 30 31 32 33 34 33 34 33 33 33 32
30 30 30 30 29 29 30 31 31 30 30 30 31 31 31 30 30 30 30 29 28 29 29 28 28 28 28 28 29 31 31 32 33 35 35 36 35 35 35 33 32 30
27 27 27 27 27 27 27 27 26 26 25 26 26 26 26 27 27 27 26 25 25 25 26 26 26 26 26 27 27 28 29 31 32 33 33 33 33 33 32 30 28 27
19 19 20 21 21 20 20 21 21 21 21 21 22 22 22 23 23 23 22 21 22 23 24 24 23 24 24 24 25 25 26 27 28 28 29 29 30 29 29 28 27 28
15 14 14 15 15 15 16 18 18 18 18 19 19 19 20 20 20 20 20 20 21 22 23 23 23 24 24 23 23 24 24 25 26 26 27 28 29 29 29 29 30 31
18 18 18 18 18 19 20 22 22 21 20 20 20 19 18 19 20 20 20 21 22 23 24 25 25 25 25 24 24 24 24 25 26 27 28 29 30 31 31 32 33 34
20 21 22 22 23 23 24 25 25 24 23 22 21 20 19 20 20 20 20 21 22 23 24 26 26 27 27 26 25 25 25 26 27 29 30 31 32 33 34 35 36 38
21 23 24 24 23 24 25 25 25 25 24 24 23 23 22 22 22 22 21 21 22 23 24 26 27 28 28 28 29 29 29 30 31 33 33 34 34 34 34 35 36 36
23 24 25 25 24 23 24 25 25 25 25 25 25 25 25 25 25 25 25 24 24 25 27 28 29 30 31 32 33 33 34 34 34 34 35 35 35 36 37 37 36 36
24 25 25 25 26 26 26 27 27 28 28 28 28 29 29 29 29 29 29 28 28 29 31 31 32 32 32 33 34 36 36 37 37 37 38 38 40 42 42 41 39 38
26 25 24 24 26 27 27 28 29 31 32 32 32 32 32 32 33 33 33 33 33 34 34 34 34 35 36 37 39 39 40 41 41 41 42 43 44 46 45 43 42 41
27 26 24 25 26 27 28 30 33 35 35 35 35 35 35 35 35 35 35 35 36 36 36 36 37 38 39 41 42 42 43 43 43 44 45 45 46 46 45 45 44 44
28 29 28 28 29 30 31 34 36 37 38 39 40 39 38 37 36 35 35 36 36 37 37 38 39 40 42 43 44 44 44 44 45 46 46 46 46 46 45 45 46 46
32 33 33 32 33 33 34 37 38 39 40 43 42 40 39 38 37 36 37 37 38 39 40 41 43 44 44 44 44 44 44 44 45 45 45 45 45 45 46 47 48 49
37 37 36 37 37 36 36 39 40 40 42 44 43 41 40 40 39 38 38 39 41 42 42 42 42 42 41 41 41 42 42 43 43 44 44 44 45 46 47 49 50 51
38 37 39 40 40 38 39 40 41 42 42 43 43 42 41 39 39 39 40 40 41 40 40 39 39 39 39 39 40 40 41 42 42 43 45 46 49 51 52 54 55 56
38 38 41 43 42 41 41 42 42 42 42 42 41 40 40 39 39 39 39 39 39 38 39 39 40 41 41 42 43 45 46 48 50 51 53 55 57 58 60 60 62 63
40 42 44 45 44 43 42 42 42 41 41 41 41 41 41 41 42 42 43 43 42 43 44 45 47 48 49 51 52 53 55 56 57 58 60 61 62 63 64 65 66 67
44 45 46 46 46 45 43 43 42 41 40 40 42 43 43 44 45 47 48 48 49 50 51 52 53 54 55 56 57 58 59 60 62 63 64 65 66 67 68 68 70 71
47 48 48 48 47 46 45 45 45 44 44 43 43 44 46 48 50 51 51 52 53 54 55 55 56 57 59 60 62 63 64 65 66 67 68 69 69 70 71 72 73 74
50 50 51 51 50 49 48 47 47 48 48 49 50 52 54 56 57 57 58 57 57 58 58 59 60 61 62 64 66 67 68 69 70 71 72 72 73 74 74 75 76 76
54 54 55 55 55 54 53 53 53 54 56 57 58 59 59 59 59 60 60 59 60 61 62 63 65 66 68 70 71 72 73 74 75 76 76 77 77 77 77 77 77 78
59 60 61 61 60 60 61 61 62 62 63 63 63 63 62 62 62 62 62 63 65 66 68 69 70 72 74 75 76 77 77 78 79 79 80 79 79 79 79 79 80 80
Wind_Direction
244 245 246 247 248 249 249 249 249 250 251 251 252 253 254 255 256 257 258 259 259 259 259 258 257 255 253 250 250 250 251 252 253 253 252 251 250 249 252 254 248 248
245 246 247 249 250 251 252 252 252 252 253 253 253 254 255 255 256 257 258 259 259 259 258 257 254 252 251 250 250 250 252 254 255 256 254 253 251 247 247 249 248 248
247 248 249 250 252 253 254 255 255 255 255 255 256 255 255 256 256 257 258 259 259 258 256 255 252 251 249 249 251 252 253 254 255 256 255 254 254 252 249 247 246 246
248 249 250 251 253 254 255 255 255 255 255 256 256 255 255 255 256 256 257 256 256 255 255 253 251 250 249 249 250 252 252 253 253 254 255 257 258 257 255 252 250 249
249 249 250 251 252 253 254 255 254 253 253 253 253 254 254 254 254 254 255 254 254 254 254 253 251 250 250 249 250 251 253 253 254 254 257 258 258 258 258 257 255 251
249 249 249 250 250 250 251 253 253 252 250 250 250 251 252 252 252 252 253 253 254 254 253 252 252 251 250 251 251 252 253 255 256 257 258 259 259 259 258 256 252 249
247 249 249 248 247 248 249 251 251 250 249 246 246 246 247 248 248 248 249 250 252 253 254 253 253 252 251 252 253 254 255 257 258 260 261 262 261 260 257 254 251 253
253 255 256 253 251 253 256 258 258 256 254 250 247 245 244 244 245 245 246 247 249 251 254 255 255 254 253 253 253 254 257 259 262 265 266 265 264 263 260 258 257 260
265 265 265 263 263 265 266 267 267 265 263 261 258 255 252 249 248 248 249 249 249 251 253 256 257 257 256 255 254 255 257 259 262 264 265 266 266 266 266 265 265 267
267 266 266 267 268 270 271 272 273 272 269 267 265 266 264 261 257 256 255 255 255 256 257 259 260 260 260 260 259 259 260 261 262 264 266 268 270 271 273 274 275 276
265 263 263 265 267 269 271 272 273 272 270 268 268 268 268 266 264 263 262 261 260 262 262 263 262 262 263 263 263 264 265 266 267 269 270 272 274 277 280 281 282 283
265 261 260 260 260 261 263 266 267 266 264 263 264 265 266 266 265 265 265 265 266 267 268 267 265 263 263 265 267 268 270 272 275 276 277 277 277 280 283 285 285 287
262 260 259 257 254 253 255 257 260 260 259 259 259 260 263 264 264 264 264 265 269 273 275 274 271 268 269 272 275 277 278 279 280 280 281 279 279 282 286 287 287 289
258 256 256 256 253 252 252 253 254 255 256 257 258 259 261 263 264 264 264 266 271 275 278 278 277 275 276 278 281 282 282 281 280 280 281 281 281 284 286 287 289 291
251 249 250 254 256 254 251 250 251 253 255 256 257 259 262 265 267 268 269 271 275 278 279 279 278 276 277 279 280 281 281 281 280 281 282 283 283 283 285 287 289 291
243 245 250 255 258 257 254 254 255 257 258 260 262 265 269 271 272 273 274 276 278 280 280 279 278 278 279 280 281 282 281 281 280 281 282 283 283 284 285 286 288 289
238 242 249 254 255 257 258 260 262 264 265 266 269 271 272 273 274 275 276 277 279 280 280 280 280 280 281 281 281 281 281 281 281 281 282 283 284 285 285 286 287 289
242 244 248 251 253 256 259 262 265 267 267 270 272 272 270 271 272 273 275 277 279 281 281 281 280 280 279 279 279 279 279 280 280 281 282 283 284 286 287 287 288 288
246 247 248 249 251 254 257 260 262 263 264 267 270 271 272 272 273 275 277 278 280 280 281 280 280 280 280 279 280 280 280 280 281 282 282 283 284 286 286 287 287 287
245 246 246 247 249 253 256 257 257 258 259 260 263 267 269 270 271 273 273 273 274 275 277 278 279 279 279 279 279 279 280 280 281 281 282 282 283 284 284 285 285 286
242 242 242 245 249 252 253 253 253 253 254 255 257 259 261 263 265 266 266 267 267 268 270 271 273 274 275 275 276 277 278 279 279 280 281 282 282 283 284 285 286 287
238 238 241 245 248 249 248 247 247 247 248 251 254 256 259 262 264 265 265 264 265 266 267 268 270 271 272 274 275 276 277 278 279 280 281 282 283 284 285 286 287 288
236 239 241 244 245 245 245 244 244 244 244 246 249 254 258 262 263 264 264 264 265 266 267 268 270 271 273 274 276 277 278 279 280 281 282 282 283 284 285 287 288 288
240 241 241 241 241 242 243 243 243 243 245 248 252 257 261 264 265 266 266 266 267 267 268 270 272 274 275 277 278 279 280 281 282 283 284 284 285 286 288 289 290 290
241 243 243 242 242 244 245 246 247 249 252 256 259 262 264 266 266 267 267 268 269 269 271 272 274 276 278 279 280 281 283 284 285 286 287 287 288 289 290 291 292 292
243 244 245 247 248 249 251 252 254 256 259 262 263 264 265 265 266 266 267 268 270 271 273 274 276 278 280 281 282 283 285 286 287 288 288 289 290 291 292 293 293 293
Height
10629 10630 10631 10632 10632 10633 10635 10637 10638 10639 10640 10640 10641 10641 10642 10642 10643 10643 10644 10645 10646 10648 10649 10650 10651 10652 10653 10654 10655 10656 10658 10658 10660 10661 10663 10664 10665 10666 10665 10665 10666 10665
10625 10626 10627 10628 10629 10631 10633 10634 10635 10635 10636 10636 10637 10637 10637 10638 10638 10639 10639 10640 10642 10643 10644 10646 10647 10648 10649 10650 10651 10653 10654 10655 10656 10657 10659 10660 10662 10662 10662 10663 10663 10661
10622 10623 10624 10625 10627 10628 10629 10630 10631 10631 10632 10633 10633 10632 10633 10633 10634 10634 10635 10636 10638 10639 10640 10641 10643 10644 10645 10646 10648 10649 10651 10652 10653 10653 10654 10656 10658 10659 10659 10660 10660 10659
10619 10620 10621 10622 10623 10624 10624 10625 10625 10627 10628 10628 10628 10628 10628 10629 10629 10630 10631 10632 10634 10635 10636 10637 10639 10640 10641 10643 10644 10646 10647 10649 10649 10649 10650 10652 10654 10654 10655 10655 10656 10657
10615 10615 10616 10617 10618 10619 10619 10619 10621 10622 10623 10623 10623 10623 10624 10625 10625 10626 10627 10628 10630 10631 10632 10633 10635 10636 10638 10640 10641 10642 10643 10645 10645 10646 10647 10648 10649 10650 10651 10652 10652 10653
10611 10611 10612 10613 10614 10615 10615 10616 10617 10618 10619 10619 10619 10619 10620 10621 10621 10622 10623 10625 10626 10627 10628 10630 10631 10633 10634 10636 10637 10639 10640 10641 10642 10642 10643 10644 10645 10646 10647 10648 10648 10648
10608 10609 10610 10610 10611 10612 10613 10613 10614 10615 10616 10616 10615 10616 10616 10617 10618 10619 10620 10622 10623 10624 10625 10626 10628 10629 10631 10632 10634 10636 10637 10638 10638 10639 10640 10641 10642 10643 10643 10644 10644 10644
10606 10607 10607 10608 10609 10610 10611 10611 10612 10613 10613 10613 10613 10613 10614 10614 10615 10616 10618 10619 10620 10621 10622 10623 10625 10626 10628 10629 10631 10633 10634 10635 10635 10636 10637 10637 10638 10639 10639 10640 10640 10640
10603 10604 10605 10606 10607 10608 10609 10609 10609 10610 10611 10611 10611 10611 10612 10612 10613 10614 10615 10617 10618 10619 10620 10621 10622 10623 10625 10626 10628 10629 10630 10631 10632 10633 10633 10634 10634 10635 10636 10636 10636 10636
10600 10601 10602 10603 10604 10604 10605 10605 10606 10607 10608 10608 10609 10610 10610 10610 10611 10612 10613 10614 10616 10617 10618 10619 10620 10620 10622 10623 10624 10626 10627 10628 10628 10629 10629 10630 10630 10631 10631 10632 10632 10631
10596 10597 10598 10599 10600 10601 10601 10601 10602 10603 10604 10605 10606 10607 10608 10608 10609 10610 10611 10612 10613 10614 10615 10616 10617 10617 10619 10620 10621 10622 10623 10624 10624 10624 10625 10625 10626 10626 10626 10627 10627 10626
10592 10593 10594 10595 10596 10597 10597 10597 10598 10599 10600 10601 10602 10603 10604 10605 10606 10607 10608 10609 10610 10611 10611 10612 10612 10613 10614 10615 10616 10617 10618 10619 10619 10620 10620 10620 10620 10621 10621 10621 10621 10621
10588 10589 10590 10591 10592 10592 10593 10593 10594 10595 10595 10596 10598 10599 10600 10602 10603 10604 10605 10606 10607 10608 10608 10608 10608 10609 10610 10611 10612 10613 10613 10614 10614 10614 10615 10615 10615 10614 10614 10614 10614 10614
10584 10585 10586 10587 10588 10588 10589 10590 10590 10590 10591 10592 10593 10595 10596 10597 10599 10600 10601 10602 10603 10603 10604 10604 10604 10605 10605 10606 10606 10607 10607 10608 10608 10608 10608 10608 10608 10607 10607 10607 10606 10606
10580 10581 10583 10583 10584 10585 10585 10585 10585 10585 10586 10587 10588 10590 10591 10593 10594 10595 10596 10596 10597 10598 10599 10599 10599 10600 10600 10600 10600 10600 10601 10601 10601 10602 10602 10601 10601 10600 10600 10599 10599 10599
10577 10578 10579 10580 10580 10581 10581 10581 10580 10580 10581 10581 10583 10585 10586 10587 10589 10589 10589 10590 10591 10592 10593 10593 10594 10594 10594 10594 10594 10594 10594 10594 10594 10595 10595 10594 10594 10593 10592 10592 10591 10591
10574 10574 10575 10576 10576 10576 10576 10576 10575 10576 10576 10575 10578 10581 10582 10582 10583 10584 10584 10584 10585 10586 10587 10587 10588 10588 10588 10588 10588 10588 10587 10587 10587 10587 10587 10587 10586 10586 10585 10585 10584 10583
10570 10571 10571 10571 10571 10572 10572 10571 10571 10572 10571 10571 10572 10574 10576 10577 10578 10579 10579 10580 10580 10581 10581 10581 10581 10581 10581 10581 10580 10580 10580 10580 10580 10579 10579 10579 10579 10579 10578 10578 10577 10576
10565 10567 10566 10565 10566 10567 10567 10567 10567 10567 10567 10567 10567 10568 10569 10571 10572 10572 10573 10573 10573 10574 10574 10574 10574 10574 10574 10574 10573 10573 10573 10573 10573 10573 10573 10573 10572 10572 10572 10571 10570 10569
10560 10561 10560 10559 10560 10562 10563 10563 10564 10564 10564 10564 10564 10564 10564 10565 10566 10566 10566 10567 10567 10568 10568 10568 10568 10568 10568 10568 10568 10568 10568 10568 10568 10567 10567 10567 10566 10566 10565 10564 10563 10562
10555 10555 10554 10554 10555 10557 10558 10558 10559 10559 10560 10560 10560 10561 10561 10562 10562 10562 10562 10563 10563 10564 10564 10564 10563 10563 10563 10563 10562 10562 10562 10562 10562 10561 10561 10560 10559 10559 10558 10557 10556 10554
10549 10549 10549 10549 10550 10551 10552 10553 10554 10554 10555 10555 10556 10556 10557 10557 10557 10557 10557 10558 10558 10558 10558 10558 10558 10557 10557 10556 10556 10556 10556 10555 10555 10554 10553 10553 10552 10551 10550 10549 10548 10546
10543 10543 10543 10543 10544 10545 10546 10547 10548 10549 10549 10550 10551 10551 10552 10552 10552 10551 10551 10552 10552 10551 10551 10551 10550 10550 10550 10549 10549 10548 10548 10547 10547 10546 10545 10544 10543 10542 10542 10541 10539 10538
10538 10537 10537 10537 10538 10540 10541 10541 10542 10542 10543 10544 10545 10546 10546 10546 10546 10545 10545 10545 10545 10544 10544 10543 10543 10543 10542 10541 10541 10540 10539 10538 10537 10537 10536 10535 10534 10533 10532 10532 10530 10528
10532 10531 10530 10530 10533 10534 10535 10536 10536 10536 10537 10538 10538 10539 10539 10539 10539 10538 10538 10538 10537 10536 10536 10535 10535 10535 10534 10533 10532 10531 10530 10529 10528 10527 10526 10525 10524 10523 10522 10521 10519 10517
10525 10524 10523 10524 10527 10529 10529 10529 10529 10528 10529 10530 10530 10531 10532 10532 10531 10530 10531 10530 10528 10528 10527 10527 10527 10527 10526 10524 10523 10522 10521 10520 10518 10517 10515 10514 10513 10512 10511 10510 10508 10507